Orbital Elements at Epoch 2459000.5 (2020-May-31.0) TDB
Reference: JPL 11 (heliocentric ecliptic J2000)
Element | Value | Uncertainty (1-sigma) | Units |
e | .2490068926552831 | 5.9328e-08 | |
a | 2.332899673026011 | 2.639e-08 | au |
q | 1.751991574569278 | 1.4449e-07 | au |
i | 5.897809036524082 | 9.3457e-06 | deg |
node | 343.8291576744132 | 7.8445e-05 | deg |
peri | 324.7768725192522 | 8.1161e-05 | deg |
M | 258.1742753654186 | 2.584e-05 | deg |
tp | 2459368.626878991758 (2021-Jun-03.12687899) | 9.6472e-05 | TDB |
period | 1301.495048649283 3.56 | 2.2084e-05 6.046e-08 | d yr |
n | .2766049708553368 | 4.6934e-09 | deg/d |
Q | 2.913807771482744 | 3.2961e-08 | au |
|
| | Orbit Determination Parameters
Additional Information
|